This is the latest recevied weather packets stored in our database for station/object HS3PIK-2. If no packets are shown the sender has not sent any weather packets the latest 10 day(s).
| Time | Temp. | Humidity | Pressure | Rain* | Wind** | Luminosity | Snow |
|---|---|---|---|---|---|---|---|
| 1777452035 | 35.56° C | 61% | - | - | - | 0 W/m² | - |
| 1777451705 | 36.11° C | 56% | - | - | - | 0 W/m² | - |
| 1777451380 | 37.78° C | 51% | - | - | - | 0 W/m² | - |
| 1777451053 | 38.33° C | 47% | - | - | - | 0 W/m² | - |
| 1777450723 | 38.89° C | 47% | - | - | - | 0 W/m² | - |
| 1777450396 | 38.89° C | 47% | - | - | - | 0 W/m² | - |
| 1777450068 | 40° C | 45% | - | - | - | 0 W/m² | - |
| 1777449741 | 40° C | 45% | - | - | - | 0 W/m² | - |
| 1777449416 | 40.56° C | 45% | - | - | - | 0 W/m² | - |
| 1777449091 | 40.56° C | 44% | - | - | - | 0 W/m² | - |
| 1777448768 | 41.11° C | 44% | - | - | - | 0 W/m² | - |
| 1777448441 | 41.67° C | 44% | - | - | - | 0 W/m² | - |
| 1777448116 | 41.67° C | 43% | - | - | - | 0 W/m² | - |
| 1777447791 | 42.78° C | 42% | - | - | - | 0 W/m² | - |
| 1777447461 | 42.22° C | 43% | - | - | - | 0 W/m² | - |
| 1777447134 | 42.22° C | 44% | - | - | - | 0 W/m² | - |
| 1777446804 | 41.67° C | 45% | - | - | - | 0 W/m² | - |
| 1777446474 | 41.67° C | 46% | - | - | - | 0 W/m² | - |
| 1777446141 | 41.11° C | 46% | - | - | - | 0 W/m² | - |
| 1777445814 | 41.11° C | 47% | - | - | - | 0 W/m² | - |
| 1777445486 | 40° C | 47% | - | - | - | 0 W/m² | - |
| 1777445164 | 39.44° C | 49% | - | - | - | 0 W/m² | - |
| 1777444837 | 37.78° C | 52% | - | - | - | 0 W/m² | - |
| 1777444509 | 38.33° C | 49% | - | - | - | 0 W/m² | - |
| 1777444179 | 38.89° C | 47% | - | - | - | 0 W/m² | - |
* Rain since midnight (hover to see other rain measurements)
** Current wind speed in m/s (hover to see current wind gust speed)